Weather History for Saipan, MP

Change the Weather History Date:

Wednesday, November 28, 2012

  Actual Average Record
Temperature  
Mean Temperature 82 °F -  
Max Temperature 87 °F 84 °F 87 °F (2008)
Min Temperature 78 °F 76 °F 73 °F (2001)
Cooling Degree Days 18    
Growing Degree Days 32 (Base 50)    
Moisture  
Dew Point 71 °F    
Average Humidity 70    
Maximum Humidity 79    
Minimum Humidity 55    
Precipitation  
Precipitation 0.00 in - - ()
Sea Level Pressure  
Sea Level Pressure 29.93 in    
Wind  
Wind Speed 6 mph (NNE)    
Max Wind Speed 9 mph    
Max Gust Speed -    
Visibility 9 miles    
Events Rain    
Averages and records for this station are not official NWS values.
T = Trace of Precipitation, MM = Missing Value Source: NWS Daily Summary

Daily Weather History Graph

Daily Weather History Graph

Search for Another Location

Airport:

Trip Planner

Search our weather history database for the weather conditions in past years. The results will help you decide how hot, cold, wet, or windy it might be!

Date:

Astronomy

Nov. 28, 2012 Rise Set
Actual Time 6:25 AM ChST 5:44 PM ChST
Civil Twilight 6:02 AM ChST 6:07 PM ChST
Nautical Twilight 5:36 AM ChST 6:33 PM ChST
Astronomical Twilight 5:09 AM ChST 7:00 PM ChST
Moon 5:29 PM ChST (11/28) 5:51 AM ChST (11/28)
Length of Visible Light 12h 05m
Length of Day
11h 19m
Full, 100% of the Moon is Illuminated
Nov 28
Full
Nov 29
Full
Dec 7
Last Quarter
Dec 13
New
Dec 20
First Quarter

Hourly Weather History & Observations

Time (ChST) Temp. Heat Index Dew Point Humidity Pressure Visibility Wind Dir Wind Speed Gust Speed Precip Events Conditions
12:54 AM 78.1 °F - 71.1 °F 79% 29.93 in 10.0 mi NNE 5.8 mph - N/A   Partly Cloudy
1:54 AM 78.1 °F - 71.1 °F 79% 29.92 in 10.0 mi North 5.8 mph - N/A   Scattered Clouds
2:54 AM 78.1 °F - 70.0 °F 76% 29.91 in 10.0 mi NNE 5.8 mph - N/A   Scattered Clouds
3:54 AM 78.1 °F - 71.1 °F 79% 29.90 in 10.0 mi NNE 5.8 mph - N/A   Mostly Cloudy
4:54 AM 79.0 °F - 71.1 °F 77% 29.91 in 10.0 mi North 5.8 mph - N/A   Mostly Cloudy
5:54 AM 78.1 °F - 70.0 °F 76% 29.92 in 10.0 mi North 4.6 mph - N/A   Partly Cloudy
6:54 AM 78.1 °F - 70.0 °F 76% 29.94 in 10.0 mi North 4.6 mph - N/A   Partly Cloudy
7:54 AM 82.9 °F 87.5 °F 71.1 °F 67% 29.96 in 10.0 mi North 5.8 mph - N/A   Clear
8:54 AM 84.0 °F 89.0 °F 71.1 °F 65% 29.98 in 9.0 mi NNW 5.8 mph - N/A   Haze
9:17 AM 84.2 °F 89.6 °F 71.6 °F 66% 29.91 in 1.0 mi NW 5.8 mph - N/A   Haze
9:25 AM 86.0 °F 91.8 °F 71.6 °F 62% 29.91 in 5.0 mi NNW 4.6 mph - N/A   Haze
9:54 AM 87.1 °F 92.8 °F 71.1 °F 59% 29.98 in 6.0 mi Variable 4.6 mph - N/A   Haze
10:54 AM 84.0 °F 89.0 °F 71.1 °F 65% 29.97 in 10.0 mi NNW 4.6 mph - N/A   Scattered Clouds
11:54 AM 84.9 °F 89.4 °F 70.0 °F 61% 29.95 in 10.0 mi NE 4.6 mph - N/A   Scattered Clouds
12:54 PM 86.0 °F 90.7 °F 70.0 °F 59% 29.93 in 10.0 mi ENE 5.8 mph - N/A   Mostly Cloudy
1:54 PM 87.1 °F 92.0 °F 70.0 °F 57% 29.90 in 10.0 mi East 9.2 mph - N/A   Scattered Clouds
2:54 PM 87.1 °F 91.3 °F 69.1 °F 55% 29.88 in 10.0 mi NNE 8.1 mph - N/A   Partly Cloudy
3:54 PM 86.0 °F 90.1 °F 69.1 °F 57% 29.88 in 10.0 mi NE 9.2 mph - N/A   Scattered Clouds
4:54 PM 84.0 °F 88.4 °F 70.0 °F 63% 29.90 in 10.0 mi NE 9.2 mph - N/A   Partly Cloudy
5:54 PM 81.0 °F 84.9 °F 71.1 °F 72% 29.91 in 10.0 mi NE 6.9 mph - N/A   Partly Cloudy
6:54 PM 80.1 °F 83.6 °F 71.1 °F 74% 29.94 in 10.0 mi ENE 8.1 mph - N/A   Partly Cloudy
7:54 PM 80.1 °F 83.8 °F 72.0 °F 76% 29.95 in 10.0 mi ENE 9.2 mph - N/A   Partly Cloudy
8:54 PM 79.0 °F - 72.0 °F 79% 29.96 in 10.0 mi NE 4.6 mph - N/A   Partly Cloudy
9:54 PM 80.1 °F 83.8 °F 72.0 °F 76% 29.97 in 10.0 mi NE 6.9 mph - N/A   Partly Cloudy
10:54 PM 80.1 °F 84.2 °F 73.0 °F 79% 29.97 in 10.0 mi North 4.6 mph - 0.00 in Rain Light Rain
11:54 PM 80.1 °F 84.2 °F 73.0 °F 79% 29.96 in 10.0 mi NE 5.8 mph - 0.00 in   Partly Cloudy